Weather History for DeLand, FL

Change the Weather History Date:

Friday, December 21, 2012

  Actual Average Record
Temperature  
Mean Temperature 58 °F -  
Max Temperature 71 °F 71 °F 82 °F (2013)
Min Temperature 44 °F 47 °F 44 °F (2012)
Degree Days  
Heating Degree Days 8    
Growing Degree Days 8 (Base 50)    
Moisture  
Dew Point 35 °F    
Average Humidity 52    
Maximum Humidity 94    
Minimum Humidity 23    
Precipitation  
Precipitation 0.00 in - - ()
Sea Level Pressure  
Sea Level Pressure 30.09 in    
Wind  
Wind Speed 12 mph (West)    
Max Wind Speed 17 mph    
Max Gust Speed 26 mph    
Visibility 10 miles    
Events      
Averages and records for this station are not official NWS values.
T = Trace of Precipitation, MM = Missing Value Source: NWS Daily Summary

Daily Weather History Graph

Daily Weather History Graph

Search for Another Location

Airport:

Trip Planner

Search our weather history database for the weather conditions in past years. The results will help you decide how hot, cold, wet, or windy it might be!

Date:

Astronomy

Dec. 21, 2012 Rise Set
Actual Time 7:14 AM EST 5:32 PM EST
Civil Twilight 6:48 AM EST 5:58 PM EST
Nautical Twilight 6:19 AM EST 6:27 PM EST
Astronomical Twilight 5:50 AM EST 6:56 PM EST
Moon 1:01 PM EST (12/21) 1:19 AM EST (12/21)
Length of Visible Light 11h 09m
Length of Day
10h 17m
Waxing Gibbous, 64% of the Moon is Illuminated
Dec 21
Waxing Gibbous
Dec 28
Full
Jan 4
Last Quarter
Jan 11
New
Jan 18
First Quarter

Hourly Weather History & Observations

Time (EST) Temp. Windchill Dew Point Humidity Pressure Visibility Wind Dir Wind Speed Gust Speed Precip Events Conditions
12:15 AM 71.6 °F - 66.2 °F 83% 29.91 in 9.0 mi SW 11.5 mph - N/A   Mostly Cloudy
12:35 AM 69.8 °F - 68.0 °F 94% 29.92 in - WSW 16.1 mph 21.9 mph N/A   Unknown
12:55 AM 68.0 °F - 64.4 °F 88% 29.93 in 6.0 mi West 12.7 mph 20.7 mph N/A   Mostly Cloudy
1:15 AM 66.2 °F - 62.6 °F 88% 29.94 in 5.0 mi West 12.7 mph 25.3 mph N/A   Overcast
1:35 AM 66.2 °F - 62.6 °F 88% 29.94 in 7.0 mi West 15.0 mph 21.9 mph N/A   Overcast
1:55 AM 64.4 °F - 60.8 °F 88% 29.95 in 7.0 mi West 13.8 mph 21.9 mph N/A   Mostly Cloudy
2:15 AM 62.6 °F - 51.8 °F 68% 29.96 in 8.0 mi West 13.8 mph 26.5 mph N/A   Scattered Clouds
2:35 AM 60.8 °F - 46.4 °F 59% 29.98 in 9.0 mi WNW 15.0 mph 21.9 mph N/A   Partly Cloudy
2:55 AM 59.0 °F - 46.4 °F 63% 29.98 in 9.0 mi WNW 10.4 mph - N/A   Clear
3:15 AM 57.2 °F - 48.2 °F 72% 29.98 in 8.0 mi WNW 11.5 mph 17.3 mph N/A   Clear
3:35 AM 57.2 °F - 46.4 °F 67% 29.99 in 9.0 mi WNW 11.5 mph 17.3 mph N/A   Clear
3:55 AM 55.4 °F - 44.6 °F 67% 30.01 in 10.0 mi WNW 11.5 mph 18.4 mph N/A   Clear
4:15 AM 53.6 °F - 42.8 °F 67% 30.01 in 10.0 mi WNW 15.0 mph 24.2 mph N/A   Clear
4:35 AM 53.6 °F - 41.0 °F 62% 30.02 in 10.0 mi WNW 10.4 mph 20.7 mph N/A   Clear
4:55 AM 51.8 °F - 39.2 °F 62% 30.02 in 10.0 mi WNW 12.7 mph - N/A   Clear
5:15 AM 51.8 °F - 39.2 °F 62% 30.03 in 10.0 mi West 9.2 mph - N/A   Clear
5:55 AM 48.2 °F - 39.2 °F 71% 30.06 in 10.0 mi WNW 10.4 mph - N/A   Clear
6:15 AM 48.2 °F - 37.4 °F 66% 30.07 in 10.0 mi West 8.1 mph 17.3 mph N/A   Clear
6:35 AM 48.2 °F - 35.6 °F 62% 30.08 in 10.0 mi WNW 11.5 mph 17.3 mph N/A   Clear
6:55 AM 46.4 °F 41.1 °F 35.6 °F 66% 30.09 in 10.0 mi WNW 11.5 mph 18.4 mph N/A   Clear
7:15 AM 46.4 °F 41.5 °F 33.8 °F 62% 30.10 in 10.0 mi WNW 10.4 mph 20.7 mph N/A   Clear
7:35 AM 46.4 °F 40.7 °F 33.8 °F 62% 30.11 in 10.0 mi WNW 12.7 mph 20.7 mph N/A   Clear
7:55 AM 46.4 °F 41.1 °F 33.8 °F 62% 30.12 in 10.0 mi WNW 11.5 mph 19.6 mph N/A   Clear
8:15 AM 46.4 °F 41.5 °F 32.0 °F 57% 30.13 in 10.0 mi WNW 10.4 mph 19.6 mph N/A   Clear
8:35 AM 46.4 °F 40.1 °F 32.0 °F 57% 30.13 in 10.0 mi WNW 15.0 mph 20.7 mph N/A   Clear
8:55 AM 48.2 °F - 32.0 °F 54% 30.13 in 10.0 mi West 13.8 mph 25.3 mph N/A   Clear
9:15 AM 48.2 °F - 32.0 °F 54% 30.14 in 10.0 mi WNW 15.0 mph 21.9 mph N/A   Clear
9:35 AM 48.2 °F - 32.0 °F 54% 30.14 in 9.0 mi WNW 15.0 mph 20.7 mph N/A   Clear
9:55 AM 50.0 °F - 32.0 °F 50% 30.15 in 10.0 mi WNW 16.1 mph 21.9 mph N/A   Clear
10:15 AM 51.8 °F - 32.0 °F 47% 30.15 in 10.0 mi WNW 12.7 mph 18.4 mph N/A   Clear
10:55 AM 53.6 °F - 30.2 °F 41% 30.14 in 10.0 mi West 11.5 mph 19.6 mph N/A   Clear
11:15 AM 53.6 °F - 30.2 °F 41% 30.14 in 10.0 mi West 11.5 mph - N/A   Clear
11:35 AM 53.6 °F - 28.4 °F 38% 30.13 in 10.0 mi West 15.0 mph 23.0 mph N/A   Clear
11:55 AM 55.4 °F - 28.4 °F 36% 30.12 in 9.0 mi West 12.7 mph 25.3 mph N/A   Clear
12:15 PM 55.4 °F - 28.4 °F 36% 30.11 in 10.0 mi West 17.3 mph 25.3 mph N/A   Clear
12:35 PM 55.4 °F - 28.4 °F 36% 30.10 in 10.0 mi West 16.1 mph 21.9 mph N/A   Clear
12:55 PM 57.2 °F - 26.6 °F 31% 30.09 in 10.0 mi West 17.3 mph 26.5 mph N/A   Clear
1:15 PM 57.2 °F - 26.6 °F 31% 30.08 in 10.0 mi West 11.5 mph 19.6 mph N/A   Clear
1:35 PM 57.2 °F - 24.8 °F 29% 30.07 in 10.0 mi West 15.0 mph 24.2 mph N/A   Clear
1:55 PM 59.0 °F - 24.8 °F 27% 30.06 in 10.0 mi West 13.8 mph - N/A   Clear
2:15 PM 60.8 °F - 23.0 °F 23% 30.06 in 9.0 mi WNW 12.7 mph 20.7 mph N/A   Clear
2:35 PM 60.8 °F - 26.6 °F 27% 30.06 in 10.0 mi West 16.1 mph 23.0 mph N/A   Clear
2:55 PM 60.8 °F - 24.8 °F 25% 30.06 in 10.0 mi West 13.8 mph 21.9 mph N/A   Clear
3:15 PM 60.8 °F - 23.0 °F 23% 30.07 in 10.0 mi West 15.0 mph 21.9 mph N/A   Clear
4:15 PM 57.2 °F - 23.0 °F 27% 30.09 in 10.0 mi WNW 13.8 mph 24.2 mph N/A   Clear
4:35 PM 57.2 °F - 24.8 °F 29% 30.09 in 10.0 mi WNW 10.4 mph 16.1 mph N/A   Clear
4:55 PM 55.4 °F - 24.8 °F 31% 30.10 in 10.0 mi WNW 11.5 mph - N/A   Clear
5:15 PM 55.4 °F - 21.2 °F 26% 30.10 in 10.0 mi WNW 10.4 mph 19.6 mph N/A   Clear
5:35 PM 53.6 °F - 23.0 °F 30% 30.11 in 10.0 mi West 6.9 mph - N/A   Clear
5:55 PM 51.8 °F - 26.6 °F 38% 30.12 in 10.0 mi Calm Calm - N/A   Clear
6:15 PM 51.8 °F - 28.4 °F 41% 30.12 in 10.0 mi West 3.5 mph - N/A   Clear
6:35 PM 51.8 °F - 26.6 °F 38% 30.13 in 10.0 mi West 5.8 mph - N/A   Clear
6:55 PM 50.0 °F - 28.4 °F 43% 30.14 in 10.0 mi West 6.9 mph - N/A   Clear
7:15 PM 48.2 °F - 30.2 °F 50% 30.15 in 10.0 mi West 6.9 mph - N/A   Clear
7:35 PM 48.2 °F - 32.0 °F 54% 30.16 in 10.0 mi West 6.9 mph - N/A   Clear
7:55 PM 48.2 °F - 32.0 °F 54% 30.17 in 10.0 mi West 5.8 mph - N/A   Clear
8:15 PM 46.4 °F 42.4 °F 32.0 °F 57% 30.18 in 10.0 mi West 8.1 mph - N/A   Clear
8:35 PM 46.4 °F 42.9 °F 32.0 °F 57% 30.18 in 10.0 mi West 6.9 mph - N/A   Clear
8:55 PM 46.4 °F 42.4 °F 32.0 °F 57% 30.19 in 10.0 mi West 8.1 mph - N/A   Clear
9:15 PM 46.4 °F 42.4 °F 32.0 °F 57% 30.20 in 10.0 mi West 8.1 mph - N/A   Clear
9:35 PM 44.6 °F 40.2 °F 32.0 °F 61% 30.20 in 10.0 mi West 8.1 mph - N/A   Clear
9:55 PM 44.6 °F 39.7 °F 30.2 °F 57% 30.20 in 10.0 mi West 9.2 mph - N/A   Clear
10:15 PM 44.6 °F 41.4 °F 30.2 °F 57% 30.21 in 10.0 mi West 5.8 mph - N/A   Clear
10:55 PM 44.6 °F 39.7 °F 28.4 °F 53% 30.21 in 10.0 mi West 9.2 mph - N/A   Clear
11:15 PM 44.6 °F 39.7 °F 28.4 °F 53% 30.21 in 10.0 mi WNW 9.2 mph - N/A   Clear
11:35 PM 44.6 °F 39.7 °F 26.6 °F 49% 30.21 in 10.0 mi WNW 9.2 mph - N/A   Clear
11:55 PM 44.6 °F 40.2 °F 26.6 °F 49% 30.22 in 10.0 mi WNW 8.1 mph - N/A   Clear